Weather History for KTMK - November, 2013

Change the Weather History Date:

Saturday, November 9, 2013

  Actual Average (KMMV) Record (KMMV)
Temperature  
Mean Temperature 44 °F 46 °F  
Max Temperature 51 °F 54 °F 72 °F (1923)
Min Temperature 37 °F 39 °F 25 °F (1936)
Degree Days  
Heating Degree Days 21 19  
Month to date heating degree days 161  
Since 1 July heating degree days 784  
Cooling Degree Days 0 0  
Month to date cooling degree days 0  
Year to date cooling degree days 215  
Moisture  
Dew Point 42 °F    
Average Humidity 95    
Maximum Humidity 100    
Minimum Humidity 71    
Precipitation  
Precipitation 0.00 in 0.19 in 1.96 in (1995)
Month to date precipitation 1.76  
Year to date precipitation 28.62  
Sea Level Pressure  
Sea Level Pressure 30.08 in    
Wind  
Wind Speed 1 mph (SE)    
Max Wind Speed 6 mph    
Max Gust Speed -    
Visibility 9 miles    
Events Fog    
T = Trace of Precipitation, MM = Missing Value Source: NWS Daily Summary

Daily Weather History Graph

Daily Weather History Graph

Search for Another Location

Airport or City:

Trip Planner

Search our weather history database for the weather conditions in past years. The results will help you decide how hot, cold, wet, or windy it might be!

Date:

Astronomy

Nov. 09, 2013 Rise Set
Actual Time 8:06 AM MST 5:51 PM MST
Civil Twilight 7:34 AM MST 6:22 PM MST
Nautical Twilight 6:59 AM MST 6:58 PM MST
Astronomical Twilight 6:24 AM MST 7:33 PM MST
Moon 1:43 PM MST (11/9) No Moon Set
Length of Visible Light 10h 48m
Length of Day
9h 45m
Waxing Crescent, 45% of the Moon is Illuminated
Nov 9
Waxing Crescent
Nov 9
First Quarter
Nov 17
Full
Nov 25
Last Quarter
Dec 2
New

Hourly Weather History & Observations

Time (MST) Temp. Windchill Dew Point Humidity Pressure Visibility Wind Dir Wind Speed Gust Speed Precip Events Conditions
12:15 AM 41.0 °F - 41.0 °F 100% 30.15 in 0.5 mi Calm Calm - N/A Fog Fog
12:35 AM 41.0 °F 39.0 °F 41.0 °F 100% 30.15 in 1.0 mi SE 3.5 mph - N/A   Overcast
12:55 AM 41.0 °F - 41.0 °F 100% 30.14 in 10.0 mi Calm Calm - N/A   Scattered Clouds
1:15 AM 39.2 °F 37.0 °F 39.2 °F 100% 30.14 in 7.0 mi South 3.5 mph - N/A   Clear
1:35 AM 39.2 °F - 39.2 °F 100% 30.14 in 0.8 mi Calm Calm - N/A   Mostly Cloudy
1:55 AM 39.2 °F 35.9 °F 39.2 °F 100% 30.13 in 7.0 mi SE 4.6 mph - N/A   Scattered Clouds
2:15 AM 39.2 °F - 39.2 °F 100% 30.13 in 10.0 mi Calm Calm - N/A   Clear
2:35 AM 39.2 °F 35.0 °F 39.2 °F 100% 30.12 in 10.0 mi SSE 5.8 mph - N/A   Clear
2:55 AM 39.2 °F - 39.2 °F 100% 30.12 in 10.0 mi Calm Calm - N/A   Clear
3:15 AM 39.2 °F 35.9 °F 39.2 °F 100% 30.12 in 10.0 mi SSE 4.6 mph - N/A   Clear
3:35 AM 37.4 °F 33.8 °F 37.4 °F 100% 30.12 in 10.0 mi SE 4.6 mph - N/A   Clear
3:55 AM 37.4 °F 34.9 °F 37.4 °F 100% 30.12 in 10.0 mi SE 3.5 mph - N/A   Clear
4:15 AM 37.4 °F 34.9 °F 37.4 °F 100% 30.12 in 10.0 mi SSE 3.5 mph - N/A   Clear
4:35 AM 37.4 °F 34.9 °F 37.4 °F 100% 30.12 in 10.0 mi SSE 3.5 mph - N/A   Clear
4:55 AM 37.4 °F 33.8 °F 37.4 °F 100% 30.11 in 10.0 mi SSE 4.6 mph - N/A   Clear
5:15 AM 37.4 °F - 37.4 °F 100% 30.11 in 10.0 mi Calm Calm - N/A   Scattered Clouds
5:35 AM 37.4 °F 34.9 °F 37.4 °F 100% 30.10 in 10.0 mi ESE 3.5 mph - N/A   Scattered Clouds
5:55 AM 37.4 °F 34.9 °F 37.4 °F 100% 30.10 in 10.0 mi SE 3.5 mph - N/A   Clear
6:15 AM 37.4 °F - 37.4 °F 100% 30.09 in 10.0 mi Calm Calm - N/A   Clear
6:35 AM 37.4 °F 34.9 °F 37.4 °F 100% 30.09 in 10.0 mi SSE 3.5 mph - N/A   Clear
6:55 AM 37.4 °F - 37.4 °F 100% 30.09 in 10.0 mi Calm Calm - N/A   Clear
7:15 AM 37.4 °F 34.9 °F 37.4 °F 100% 30.09 in 10.0 mi SE 3.5 mph - N/A   Clear
7:35 AM 37.4 °F - 37.4 °F 100% 30.09 in 10.0 mi Calm Calm - N/A   Clear
7:55 AM 37.4 °F - 37.4 °F 100% 30.08 in 10.0 mi Calm Calm - N/A   Clear
8:15 AM 37.4 °F - 37.4 °F 100% 30.08 in 10.0 mi Calm Calm - N/A   Clear
8:35 AM 37.4 °F - 37.4 °F 100% 30.08 in 10.0 mi Calm Calm - N/A   Clear
8:55 AM 37.4 °F - 37.4 °F 100% 30.09 in 10.0 mi Calm Calm - N/A   Scattered Clouds
9:15 AM 39.2 °F - 39.2 °F 100% 30.09 in 10.0 mi Calm Calm - N/A   Mostly Cloudy
9:35 AM 39.2 °F - 39.2 °F 100% 30.09 in 10.0 mi Calm Calm - N/A   Overcast
9:55 AM 41.0 °F - 41.0 °F 100% 30.09 in 10.0 mi Calm Calm - N/A   Overcast
10:15 AM 41.0 °F - 41.0 °F 100% 30.09 in 10.0 mi Calm Calm - N/A   Mostly Cloudy
10:35 AM 42.8 °F - 42.8 °F 100% 30.09 in 10.0 mi Calm Calm - N/A   Overcast
10:55 AM 42.8 °F - 42.8 °F 100% 30.09 in 10.0 mi Calm Calm - N/A   Overcast
11:15 AM 44.6 °F - 44.6 °F 100% 30.09 in 10.0 mi Calm Calm - N/A   Overcast
11:35 AM 44.6 °F - 42.8 °F 93% 30.09 in 10.0 mi Calm Calm - N/A   Overcast
11:55 AM 46.4 °F - 44.6 °F 93% 30.08 in 10.0 mi Calm Calm - N/A   Overcast
12:15 PM 46.4 °F - 44.6 °F 93% 30.09 in 10.0 mi Calm Calm - N/A   Overcast
12:35 PM 46.4 °F - 44.6 °F 93% 30.07 in 10.0 mi Calm Calm - N/A   Overcast
12:55 PM 48.2 °F - 44.6 °F 87% 30.07 in 10.0 mi Calm Calm - N/A   Overcast
1:15 PM 48.2 °F - 44.6 °F 87% 30.07 in 10.0 mi Calm Calm - N/A   Overcast
1:35 PM 48.2 °F - 44.6 °F 87% 30.07 in 10.0 mi Calm Calm - N/A   Light Drizzle
1:55 PM 50.0 °F - 46.4 °F 87% 30.07 in 10.0 mi Calm Calm - N/A   Overcast
2:15 PM 50.0 °F - 44.6 °F 82% 30.07 in 10.0 mi Calm Calm - N/A   Overcast
2:35 PM 50.0 °F - 44.6 °F 82% 30.06 in 10.0 mi Calm Calm - N/A   Overcast
2:55 PM 50.0 °F - 44.6 °F 82% 30.06 in 10.0 mi Calm Calm - N/A   Overcast
3:15 PM 51.8 °F - 46.4 °F 82% 30.07 in 10.0 mi Calm Calm - N/A   Overcast
3:35 PM 51.8 °F - 44.6 °F 76% 30.06 in 10.0 mi Calm Calm - N/A   Overcast
3:55 PM 51.8 °F - 44.6 °F 76% 30.06 in 10.0 mi Calm Calm - N/A   Overcast
4:15 PM 51.8 °F - 44.6 °F 76% 30.06 in 10.0 mi Calm Calm - N/A   Overcast
4:35 PM 51.8 °F - 42.8 °F 71% 30.05 in 10.0 mi Calm Calm - N/A   Overcast
4:55 PM 51.8 °F - 42.8 °F 71% 30.06 in 10.0 mi Calm Calm - N/A   Overcast
5:15 PM 51.8 °F - 44.6 °F 76% 30.06 in 10.0 mi Calm Calm - N/A   Overcast
5:35 PM 51.8 °F - 44.6 °F 76% 30.05 in 10.0 mi Calm Calm - N/A   Overcast
5:55 PM 50.0 °F - 46.4 °F 87% 30.05 in 10.0 mi Calm Calm - N/A   Mostly Cloudy
6:15 PM 50.0 °F - 44.6 °F 82% 30.05 in 10.0 mi Calm Calm - N/A   Scattered Clouds
6:35 PM 48.2 °F - 46.4 °F 93% 30.05 in 10.0 mi Calm Calm - N/A   Mostly Cloudy
6:55 PM 46.4 °F - 46.4 °F 100% 30.05 in 10.0 mi Calm Calm - N/A   Mostly Cloudy
7:35 PM 46.4 °F - 46.4 °F 100% 30.05 in 7.0 mi Calm Calm - N/A   Overcast
7:55 PM 46.4 °F - 46.4 °F 100% 30.04 in 7.0 mi Calm Calm - N/A   Overcast
8:15 PM 46.4 °F - 46.4 °F 100% 30.04 in 7.0 mi Calm Calm - N/A   Overcast
8:35 PM 46.4 °F - 46.4 °F 100% 30.05 in 7.0 mi Calm Calm - N/A   Overcast
8:55 PM 46.4 °F - 46.4 °F 100% 30.05 in 7.0 mi Calm Calm - N/A   Overcast
9:15 PM 46.4 °F - 46.4 °F 100% 30.05 in 7.0 mi Calm Calm - N/A   Overcast
9:35 PM 46.4 °F - 46.4 °F 100% 30.04 in 10.0 mi Calm Calm - N/A   Overcast
9:55 PM 46.4 °F - 46.4 °F 100% 30.05 in 10.0 mi Calm Calm - N/A   Overcast
10:15 PM 46.4 °F - 46.4 °F 100% 30.05 in 10.0 mi Calm Calm - N/A   Overcast
10:35 PM 46.4 °F - 46.4 °F 100% 30.05 in 7.0 mi Calm Calm - N/A   Overcast
10:55 PM 46.4 °F - 46.4 °F 100% 30.05 in 10.0 mi Calm Calm - N/A   Overcast
11:15 PM 46.4 °F - 46.4 °F 100% 30.06 in 7.0 mi Calm Calm - N/A   Overcast
11:35 PM 46.4 °F - 46.4 °F 100% 30.05 in 10.0 mi Calm Calm - N/A   Overcast
11:55 PM 46.4 °F - 46.4 °F 100% 30.06 in 10.0 mi Calm Calm - N/A   Overcast